BEIDOU-3 M13 (C32)

Last updated on Wed Aug 26 2026 00:04:16 GMT+0000 (Coordinated Universal Time)

1 43622U 18072A 26236.19224292 -.00000009 00000+0 00000+0 0 9993 2 43622 56.6871 60.4173 0004665 333.1947 26.8418 1.86231257 53927
UTC large
Height (km)
Speed (km/s)
/
Latitude / Longitude
Inclination (degrees)
Orbital Period (minutes)
Azimuth
Elevation
Range (km)
Doppler Factor

Next 0 passes for location: London (51.5072 / 0.1276)

No passes found over London.
BEIDOU-3 M13 (C32)